This demonstration page uses our WeatherBlox Daily Observations layout. Learn more.

Left ArrowRight Arrow

53.62937, 11.41316

Hourly Observations for January 21, 2022

Temp ( °F °C ) Dew Point ( °F °C ) Humidity (%) Winds ( mph kmh ) Pressure ( in mb ) Visibility ( mi km ) Precip ( " mm )
12:20 am 00:20 Mostly Clear 28 -2 18 -8 64 64 W 6 9 30.27 1025 30 48 N/A
12:50 am 00:50 Mostly Clear 28 -2 18 -8 64 64 W 6 9 30.27 1025 30 48 N/A
1:20 am 01:20 Mostly Clear 28 -2 18 -8 64 64 W 7 11 30.27 1025 30 48 N/A
1:50 am 01:50 Mostly Clear 28 -2 18 -8 64 64 W 5 7 30.27 1025 30 48 N/A
2:20 am 02:20 Mostly Clear 28 -2 18 -8 64 64 W 7 11 30.27 1025 30 48 N/A
2:50 am 02:50 Mostly Clear 28 -2 19 -7 69 69 WSW 6 9 30.27 1025 30 48 N/A
3:20 am 03:20 Mostly Clear 28 -2 19 -7 69 69 W 7 11 30.24 1024 30 48 N/A
3:50 am 03:50 Mostly Clear 28 -2 19 -7 69 69 WSW 6 9 30.27 1025 30 48 N/A
4:20 am 04:20 Mostly Clear 28 -2 21 -6 74 74 W 7 11 30.27 1025 30 48 N/A
4:50 am 04:50 Mostly Clear 30 -1 23 -5 75 75 W 6 9 30.27 1025 30 48 N/A
5:20 am 05:20 Partly Cloudy 30 -1 23 -5 75 75 W 7 11 30.27 1025 30 48 N/A
5:50 am 05:50 Mostly Clear 30 -1 23 -5 75 75 W 7 11 30.24 1024 30 48 N/A
6:20 am 06:20 Mostly Clear 30 -1 23 -5 75 75 W 7 11 30.27 1025 30 48 N/A
6:50 am 06:50 Mostly Clear 30 -1 25 -4 80 80 WNW 8 13 30.27 1025 30 48 N/A
7:20 am 07:20 Mostly Clear 30 -1 23 -5 75 75 WNW 8 13 30.27 1025 30 48 N/A
7:50 am 07:50 Mostly Clear 30 -1 23 -5 75 75 WNW 8 13 30.27 1025 7 11 N/A
8:20 am 08:20 Mostly Sunny 30 -1 23 -5 75 75 W 5 7 30.27 1025 7 11 N/A
8:50 am 08:50 Mostly Sunny 28 -2 23 -5 80 80 W 6 9 30.30 1026 7 11 N/A
9:20 am 09:20 Mostly Sunny 30 -1 23 -5 75 75 W 9 15 30.30 1026 7 11 N/A
9:50 am 09:50 Mostly Sunny 32 0 23 -5 69 69 WNW 10 17 30.30 1026 7 11 N/A
10:20 am 10:20 Mostly Sunny 32 0 23 -5 69 69 W 10 17 30.30 1026 7 11 N/A
10:50 am 10:50 Mostly Sunny 34 1 23 -5 65 65 WNW 9 15 30.30 1026 7 11 N/A
11:20 am 11:20 Mostly Sunny 36 2 23 -5 60 60 WNW 8 13 30.33 1027 7 11 N/A
11:50 am 11:50 Mostly Sunny 37 3 23 -5 56 56 WNW 10 17 30.33 1027 7 11 N/A
12:50 pm 12:50 Mostly Sunny 39 4 25 -4 56 56 WNW 10 17 30.30 1026 7 11 N/A
1:20 pm 13:20 Mostly Sunny 39 4 27 -3 61 61 WNW 12 19 30.30 1026 7 11 N/A
1:50 pm 13:50 Mostly Sunny 39 4 28 -2 65 65 W 10 17 30.30 1026 30 48 N/A
2:20 pm 14:20 Mostly Sunny 39 4 30 -1 70 70 W 10 17 30.30 1026 30 48 N/A
2:50 pm 14:50 Mostly Sunny 39 4 32 0 75 75 W 7 11 30.30 1026 30 48 N/A
3:20 pm 15:20 Mostly Sunny 39 4 32 0 75 75 W 8 13 30.27 1025 30 48 N/A
4:20 pm 16:20 Mostly Sunny 39 4 34 1 81 81 W 7 11 30.27 1025 30 48 N/A
4:50 pm 16:50 Mostly Cloudy 39 4 34 1 81 81 W 8 13 30.24 1024 30 48 N/A
5:20 pm 17:20 Mostly Cloudy 39 4 36 2 87 87 W 9 15 30.24 1024 30 48 N/A
5:50 pm 17:50 Mostly Cloudy 39 4 36 2 87 87 W 7 11 30.24 1024 30 48 N/A
6:20 pm 18:20 Cloudy with Light Rain 39 4 36 2 87 87 W 8 13 30.24 1024 30 48 N/A
6:50 pm 18:50 Cloudy 39 4 37 3 93 93 W 7 11 30.21 1023 30 48 N/A
7:20 pm 19:20 Cloudy with Light Rain 39 4 37 3 93 93 W 7 11 30.21 1023 30 48 N/A
7:50 pm 19:50 Cloudy with Light Rain 39 4 39 4 100 100 W 8 13 30.21 1023 4 6 N/A
8:20 pm 20:20 Mostly Cloudy with Light Rain 39 4 39 4 100 100 W 8 13 30.21 1023 4 6 N/A
8:50 pm 20:50 Mostly Cloudy with Drizzle 41 5 39 4 93 93 W 9 15 30.21 1023 5 8 N/A
9:20 pm 21:20 Mostly Cloudy 41 5 39 4 93 93 W 9 15 30.21 1023 4 6 N/A
9:50 pm 21:50 Mostly Cloudy 41 5 41 5 100 100 WNW 9 15 30.21 1023 4 6 N/A
10:20 pm 22:20 Partly Cloudy 41 5 41 5 100 100 WNW 12 19 30.21 1023 4 6 N/A
10:50 pm 22:50 Mostly Clear 43 6 41 5 93 93 WNW 13 20 30.21 1023 6 9 N/A
11:20 pm 23:20 Mostly Clear 43 6 41 5 93 93 NW 9 15 30.21 1023 4 6 N/A
11:50 pm 23:50 Partly Cloudy 43 6 41 5 93 93 WNW 10 17 30.21 1023 30 48 N/A

Powered by AerisWeather